PROBA-1 1 26958U 01049B 26235.96717036 .00001627 00000+0 10779-3 0 9993 2 26958 97.9628 246.8850 0053218 253.4270 106.1108 15.07746727353833 CUTE-1 (CO-55) 1 27844U 03031E 26235.47433543 .00000224 00000+0 11577-3 0 9994 2 27844 98.6765 243.1950 0009455 357.8963 2.2174 14.24370673201259 CUBESAT XI-IV (CO-57) 1 27848U 03031J 26235.00471337 .00000184 00000+0 99836-4 0 9990 2 27848 98.6795 242.3899 0009782 17.8069 342.3451 14.23650697200882 APRIZESAT 4 1 35684U 09041D 26235.68713262 .00000626 00000+0 80958-4 0 9990 2 35684 98.1370 312.3396 0044582 102.3702 258.2507 14.83963850921379 APRIZESAT 3 1 35686U 09041F 26235.90663833 .00001628 00000+0 14435-3 0 9994 2 35686 98.2146 32.4197 0061110 202.3315 157.5243 14.96389141926506 PROBA-2 1 36037U 09059B 26235.43366907 .00000139 00000+0 42754-4 0 9996 2 36037 98.2478 57.8670 0014501 74.6633 285.6165 14.54886818891309 APRIZESAT 5 1 37792U 11044E 26235.76666878 .00000641 00000+0 87847-4 0 9998 2 37792 98.2455 170.7293 0052826 143.8133 216.6671 14.81176566808794 APRIZESAT 6 1 37793U 11044F 26235.23395370 .00000469 00000+0 73544-4 0 9994 2 37793 98.2297 147.0860 0041888 230.3098 282.9089 14.77000153807043 PROBA-V 1 39159U 13021A 26235.87329382 .00000050 00000+0 39800-4 0 9992 2 39159 98.3662 211.1615 0003121 306.4173 53.6718 14.23609402690748 APRIZESAT 7 1 39416U 13066A 26235.30313530 .00001095 00000+0 11331-3 0 9991 2 39416 97.7761 187.5811 0035547 351.4448 8.6160 14.91701140691236 APRIZESAT 8 1 39425U 13066K 26235.80415986 .00000907 00000+0 10358-3 0 9993 2 39425 97.8260 182.3457 0047238 64.1943 296.4135 14.87754062689724 BUGSAT-1 (TITA) 1 40014U 14033E 26235.95828494 .00003451 00000+0 18117-3 0 9990 2 40014 98.0418 332.5011 0026457 311.1764 48.7186 15.16193563666106 SAUDISAT 4 1 40016U 14033G 26235.81438123 .00000597 00000+0 85242-4 0 9995 2 40016 97.7677 19.6507 0043967 211.7008 148.1556 14.79613395656074 APRIZESAT 9 1 40018U 14033J 26235.80802700 .00000345 00000+0 58280-4 0 9995 2 40018 97.9148 7.3886 0065596 344.1433 15.7721 14.74288017653524 APRIZESAT 10 1 40019U 14033K 26235.94866872 .00000365 00000+0 64846-4 0 9998 2 40019 97.9728 1.4263 0079864 58.0218 302.8720 14.70950865652215 TECHDEMOSAT-1 (TDS-1) 1 40076U 14037H 26235.45075086 .00005989 00000+0 33259-3 0 9990 2 40076 98.3862 234.3943 0007526 52.2327 307.9583 15.14145642658405 TECHNOSAT 1 42829U 17042E 26235.86058379 .00002993 00000+0 21293-3 0 9995 2 42829 97.4353 30.9924 0016675 219.6307 140.3702 15.05283877496886 FLYING LAPTOP 1 42831U 17042G 26235.96757010 .00002629 00000+0 20726-3 0 9993 2 42831 97.4955 29.0344 0016219 258.0801 101.8606 15.01500434496626 HAWK-A 1 43765U 18099H 26235.86534754 .00006093 00000+0 23973-3 0 9996 2 43765 97.3861 287.2314 0035382 49.2902 311.1400 15.25421600423415 HAWK-B 1 43794U 18099AN 26235.57525830 .00005606 00000+0 23422-3 0 9999 2 43794 97.3913 286.2158 0033101 68.2981 292.1775 15.23519663423299 HAWK-C 1 43799U 18099AT 26235.61972747 .00007705 00000+0 26912-3 0 9991 2 43799 97.3839 288.2408 0040744 48.5136 311.9590 15.29052291424218 SALSAT 1 46495U 20068K 26235.95590157 .00006873 00000+0 23443-3 0 9995 2 46495 97.8879 243.2009 0011187 69.3904 290.8534 15.30648655325720 HAWK-2C 1 47502U 21006CT 26235.09954426 .00005446 00000+0 16070-3 0 9999 2 47502 97.2239 278.0896 0005694 335.6653 24.4322 15.35382557309763 HAWK-2A 1 47505U 21006CW 26235.36122970 .00004475 00000+0 13222-3 0 9990 2 47505 97.2280 279.0650 0005255 340.8354 19.2692 15.35444437309803 HAWK-2B 1 47508U 21006CZ 26235.54702096 .00005867 00000+0 17184-3 0 9993 2 47508 97.2150 277.4741 0005562 336.4062 23.6926 15.35585862309833 HAWK-3B 1 48931U 21059BE 26235.08427045 .00051215 00000+0 34219-3 0 9995 2 48931 97.6598 78.3978 0005311 83.0373 277.1496 15.75173347288363 HAWK-3C 1 48948U 21059BX 26235.33804152 .00046317 00000+0 30935-3 0 9997 2 48948 97.6706 84.4741 0005700 82.3012 277.8899 15.75199122288400 HAWK-3A 1 48957U 21059CG 26235.84611520 .00050647 00000+0 33741-3 0 9997 2 48957 97.6655 82.1875 0005554 82.0301 278.1594 15.75241370288488 HAWK-5C 1 52754U 22057Y 26235.91469506 .00017257 00000+0 27276-3 0 9995 2 52754 97.6655 40.0938 0004028 165.7967 194.3399 15.53544442236851 HAWK-5B 1 52756U 22057AA 26235.91453081 .00016955 00000+0 26800-3 0 9994 2 52756 97.6670 38.4542 0004902 162.2027 197.9398 15.53543352236859 HAWK-5A 1 52757U 22057AB 26235.52784111 .00016273 00000+0 25747-3 0 9995 2 52757 97.6665 38.8693 0004721 166.0536 194.0848 15.53526870236798 HAWK-6B 1 55324U 23011A 26235.58368933 .00005772 00000+0 24510-3 0 9994 2 55324 40.5006 318.8109 0002316 192.3206 167.7547 15.23445932198127 HAWK-6C 1 55326U 23011C 26235.91081518 .00003790 00000+0 16380-3 0 9998 2 55326 40.4991 313.7332 0002361 174.3994 185.6842 15.23442410198188 HAWK-6A 1 55327U 23011D 26235.64863233 .00003884 00000+0 16766-3 0 9993 2 55327 40.5002 316.8937 0002043 172.3016 187.7825 15.23441964198141 HAWK-7A 1 56191U 23054P 26235.57643731 .00004840 00000+0 17997-3 0 9991 2 56191 97.2595 121.1931 0004018 130.1098 230.0494 15.27973203187315 HAWK-7B 1 56193U 23054R 26235.64186184 .00004786 00000+0 17800-3 0 9997 2 56193 97.2621 119.5442 0002929 129.6756 230.4742 15.27973429187329 HAWK-7C 1 56200U 23054Y 26235.64173193 .00004720 00000+0 17557-3 0 9999 2 56200 97.2599 120.2919 0003481 124.6838 235.4730 15.27972554187320